Location: *
(44.1392°N, 4.8079°E)
Time: 08:08:56
(UTC+00:00)

NOSS 5 (C) - Pass Details

Date: 21 June 2021
Orbit: 379 x 1722 km, 63.3° (Epoch: 31 July)

Event Time Altitude Azimuth Distance (km) Brightness Sun altitude
Rises 02:04:30 0° 319° (NW) 2,291 8.2 -15.0°
Reaches altitude 10° 02:06:23 10° 316° (NW) 1,482 7.2 -14.8°
Maximum altitude 02:09:32 63° 235° (SW) 521 4.4 -14.5°
Drops below altitude 10° 02:13:27 10° 154° (SSE) 1,846 7.2 -14.1°
Sets 02:16:02 0° 151° (SSE) 2,935 8.3 -13.8°
